Regional Weather Roundup
Issued by NWS

Home | Current Version | Previous Version | Text Only | Print | Product List | Glossary On
Versions: 1 2 3 4 5 6 7 8 9 10 11 12 13 14 15 16 17 18 19 20 21 22 23 24 25 26 27 28 29 30 31 32 33 34 35 36 37 38 39 40 41 42 43 44 45 46 47 48 49 50
000
ASUS43 KMPX 210710
RWRMN
WEATHER ROUNDUP FOR MINNESOTA
NATIONAL WEATHER SERVICE TWIN CITIES/CHANHASSEN MN
200 AM CDT FRI JUL 21 2017


NOTE: "FAIR" INDICATES FEW OR NO CLOUDS BELOW 12,000 FEET WITH NO
SIGNIFICANT WEATHER AND/OR OBSTRUCTIONS TO VISIBILITY. N/A MEANS
CURRENT SKY AND/OR WEATHER CONDITIONS ARE NOT AVAILABLE.

MNZ060>063-068>070-210800-
   Twin Cities Metro

CITY           SKY/WX    TMP DP  RH WIND       PRES   REMARKS
TWIN CITIES    CLEAR     73  68  84 SW3       29.99R
ST PAUL        CLOUDY    71  70  96 E3        29.99R
CRYSTAL        PTCLDY    65  61  87 CALM      29.98R
BLAINE         PTCLDY    66  66 100 S6        29.98R
LAKEVILLE      CLEAR     64  64 100 CALM      29.98S FOG
EDEN PRAIRIE   CLEAR     71  68  90 CALM      29.98R
SOUTH ST PAUL  CLEAR     71  69  94 CALM      29.99R
LAKE ELMO      FAIR      64  64 100 S7        30.00R
$$
MNZ001>005-007-008-013>017-022>024-027-028-210800-
   Northwest Minnesota

CITY           SKY/WX    TMP DP  RH WIND       PRES   REMARKS
BEMIDJI        CLOUDY    62  58  88 CALM      29.95S
HALLOCK        MOCLDY    66  61  82 E9        29.89R
ROSEAU         CLOUDY    66  61  82 SE3       29.93R
WARROAD        CLOUDY    64  61  88 E5        29.94S
THIEF RVR FALL CLOUDY    67  60  78 SE8       29.92S
CROOKSTON      CLOUDY    66  61  82 SE8       29.89S
FOSSTON        CLOUDY    64  57  77 SE5       29.93S
DETROIT LAKES  CLOUDY    72  68  88 S5        29.95S
MOORHEAD       CLOUDY    73  66  78 S7        29.90S
PARK RAPIDS    CLOUDY    67  62  84 CALM      29.96S
MAHNOMEN       FAIR      70  66  86 SE5       29.92S
$$
MNZ006-009>011-018-025>026-210800-
   North Central Minnesota

CITY           SKY/WX    TMP DP  RH WIND       PRES   REMARKS
BAUDETTE       CLOUDY    60  55  83 E3        29.94S
FLAG ISLAND    CLOUDY    64  63  94 CALM      29.93S FOG
INTL FALLS     CLOUDY    53  51  93 CALM      29.96S
WASKISH        MOCLDY    61  55  82 E5        29.95F
BIG FORK       PTCLDY    57  55  94 CALM      29.97R
LONGVILLE      MOCLDY    61  61 100 CALM      29.96S FOG
GRAND RAPIDS   CLEAR     61  60  97 CALM      29.98F
CRANE LAKE     PTCLDY    52  52 100 CALM      29.99R
ORR            CLEAR     57  55  94 CALM      29.95S
COOK           PTCLDY    57  55  94 CALM      29.98S
WALKER         FAIR      60  59  97 CALM      29.96R
$$
MNZ012-019>021-037-210800-
   Northeast Minnesota

CITY           SKY/WX    TMP DP  RH WIND       PRES   REMARKS
DULUTH         CLEAR     64  61  90 NW3       29.97S
ELY            PTCLDY    55  54  94 CALM      29.99R
HIBBING        CLEAR     56  56 100 CALM      29.97S
EVELETH        CLEAR     58  55  89 CALM      29.99R
DULUTH HARBOR  CLEAR     72  66  83 S3        29.95S
TWO HARBORS    CLOUDY    70  61  73 N5        29.94S
SILVER BAY     PTCLDY    61  57  88 CALM      29.95S
GRAND MARAIS     N/A     60  53  77 CALM      29.93F
G MARAIS ARPRT PTCLDY    55  46  71 NW5       29.99F
$$
MNZ029>031-032-039>041-046>048-054>057-064-210800-
   West Central Minnesota

CITY           SKY/WX    TMP DP  RH WIND       PRES   REMARKS
FERGUS FALLS   CLOUDY    72  72 100 SE8       29.92F
WHEATON        CLOUDY    66  64  94 SE7       29.94S
MORRIS         CLOUDY    70  66  88 SE6       29.94S
ALEXANDRIA     CLOUDY    70  68  93 S6        29.98S
ELBOW LAKE     FAIR      68  68  99 E6        29.95S
WADENA         CLOUDY    66  66 100 CALM      29.96S
GLENWOOD       PTCLDY    66  66 100 CALM      29.98S FOG
APPLETON       CLOUDY    70  66  88 SE3       29.94S
BENSON         CLOUDY    70  66  88 SE5       29.96F
ORTONVILLE     CLOUDY    72  66  83 E6        29.93F
MADISON        CLOUDY    70  70 100 CALM      29.94S
WILLMAR        FAIR      66  66 100 E3        29.98S
$$
MNZ033>034-036-042>043-049>051-058-059-210800-
   Central Minnesota

CITY           SKY/WX    TMP DP  RH WIND       PRES   REMARKS
ST CLOUD       MOCLDY    63  63 100 CALM      29.96R FOG
SAUK CENTRE    FAIR      64  64  98 CALM      29.97S
PAYNESVILLE    CLOUDY    65  64  98 S3        29.98F
AITKIN         MOCLDY    61  59  94 CALM      29.95S FOG
PINE RIVER     CLOUDY    63  63 100 CALM      29.99S
BRAINERD       PTCLDY    65  65 100 CALM      29.96S FOG
STAPLES        CLOUDY    64  64 100 CALM      29.97R
LONG PRAIRIE   FAIR      64  63  94 CALM      29.98S
LITTLE FALLS   CLOUDY    64  63  94 CALM      29.98R FOG
LITCHFIELD     FOG       70  70 100 CALM      29.98S VSB 1/2
BUFFALO        PTCLDY    68  65  89 CALM      29.99R
MAPLE LAKE     PTCLDY    67  67  99 CALM      29.99R FOG
HUTCHINSON     MOCLDY    66  65  99 CALM      29.99R FOG
$$
MNZ037-044-045-052-053-210800-
   East Central Minnesota

CITY           SKY/WX    TMP DP  RH WIND       PRES   REMARKS
PRINCETON      MOCLDY    64  63  94 CALM      29.97R FOG
MORA             N/A     64  64 100 CALM      29.98R FOG
CAMBRIDGE      CLOUDY    66  63  88 CALM      29.95R
RUSH CITY      PTCLDY    62  61  96 CALM      29.96R FOG
MOOSE LAKE     PTCLDY    61  59  94 CALM      29.95S FOG
HINCKLEY       FAIR      63  63 100 CALM      29.97R
CLOQUET        CLEAR     63  61  94 CALM      29.97S
MCGREGOR         N/A     63  61  94 CALM      29.97S VSB 1/2
$$
MNZ071>073-080-081-089-090-097-098-210800-
   Southwest Minnesota

CITY           SKY/WX    TMP DP  RH WIND       PRES   REMARKS
MONTEVIDEO     CLOUDY    66  66 100 SE3       29.95S
GRANITE FALLS  PTCLDY    70  68  95 CALM      29.96S
CANBY          CLOUDY    67  65  95 CALM      29.95R FOG
MARSHALL       PTCLDY    71  69  93 S7        29.94F
REDWOOD FALLS  CLEAR     69  67  93 E6        29.95R FOG
OLIVIA         PTCLDY    68  64  88 CALM      29.95F
PIPESTONE      CLEAR     73  70  88 SE7       29.95F
WINDOM         CLEAR     72  70  94 E5        29.97S
WORTHINGTON    CLOUDY    73  72  96 E7        29.96F
JACKSON        PTCLDY    72  72 100 CALM      29.98R
TRACY          CLEAR     71  70  98 SE5       29.96S
SLAYTON        CLEAR     71  69  93 E6        29.98S
$$
MNZ065>067-074>077-082>085-091>093-210800-
   South Central Minnesota

CITY           SKY/WX    TMP DP  RH WIND       PRES   REMARKS
MANKATO        CLOUDY    71  68  90 SE8       29.98R
NEW ULM        PTCLDY    70  68  94 E5        29.96R
ST JAMES       CLOUDY    70  68  94 E7        29.97S
FAIRMONT       CLOUDY    71  70  96 E5        29.97R
GLENCOE        FOG       65  65 100 CALM      29.97R VSB 3/4
FARIBAULT      FOG       64  64 100 CALM      29.99R VSB 1/4
OWATONNA       PTCLDY    70  68  94 SE6       29.99S
WASECA         CLOUDY    68  64  88 SE6       30.00R
ALBERT LEA     CLOUDY    72  70  94 SE7       29.98F
$$
MNZ078>079-086>088-094>096-210800-
   Southeast Minnesota

CITY           SKY/WX    TMP DP  RH WIND       PRES   REMARKS
ROCHESTER      CLOUDY    67  67 100 SE7       30.01S
RED WING       FOG       66  64  94 CALM      29.98R VSB 1/4
STANTON        FOG       67  65  94 CALM      29.98R VSB 1
DODGE CENTER   CLOUDY    68  66  94 SE6       30.00S
WINONA         CLOUDY    70  68  94 CALM      29.99S
AUSTIN         CLOUDY    70  66  88 E3        29.99F
PRESTON        CLOUDY    69  66  91 SE5       30.01F
$$
ABBREVIATIONS USED IN REMARKS
   TC - TEMPERATURES IN CELSIUS
  WCI - WIND CHILL INDEX
   HX - HEAT INDEX
  VSB - VISIBILITY
$$



USA.gov is the U.S. government's official web portal to all federal, state and local government web resources and services.